Location: Beuerbach
(48.1459°N, 10.9174°E)
Time: 01:54:17
(UTC+00:00)

Resurs 1-4 Rocket - Pass Details

Date: 23 May 2024
Orbit: 798 x 814 km, 98.7° (Epoch: 13 June)

Event Time Altitude Azimuth Distance (km) Brightness Sun altitude
Rises 02:05:17 0° 9° (N) 3,318 6.4 -11.2°
Reaches altitude 10° 02:07:43 10° 3° (N) 2,383 5.4 -10.9°
Maximum altitude 02:12:39 43° 293° (WNW) 1,116 2.7 -10.4°
Enters shadow 02:17:04 13° 226° (SW) 2,186 3.7 -9.9°
